sat.trackr.live / text

‹ back to catalog

STARLINK-34275

NORAD 64413 · 2025-129B

PAYLOAD ACTIVE UNKNOWN

§ Identity

Operator
Country
US
Launch date
2025-06-17
Launch site
AFWTR
Launch vehicle
Mass (kg)
RCS (m²)

Purposes: comms

External: N2YO · Heavens-Above · Gunter

§ Orbital elements

Epoch: 2026-05-24T23:26:09.305376Z

Period
96.11 min
Inclination
70.0003°
Eccentricity
0.0003616
Mean motion
14.98349831 rev/d
Perigee alt
569.5 km
Apogee alt
574.5 km
Semi-major
6,950.1 km
B*
2.5041e-4
RAAN
242.1345°
Arg perigee
269.0133°
Mean anomaly
91.0612°
Rev number
5,271

§ Raw data

STARLINK-342751 64413U 25129B   26144.97649659  .00002898  00000+0  25041-3 0  99902 64413  70.0003 242.1345 0003616 269.0133  91.0612 14.98349831 52715

JSON: /api/v1/satellites/64413 · /tle

For live sub-satellite position, see the globe view (requires WebGL).

§ Visibility from observer

Set your observer location to see the next 7 days of passes ≥ 10°. The values pass through the URL so the page stays shareable.

No JS? Fill the form by hand. The geolocation button needs JavaScript.